sat.trackr.live / text

‹ back to catalog

STARLINK-3078

NORAD 49134 · 2021-082E

PAYLOAD ACTIVE UNKNOWN

§ Identity

Operator
Country
US
Launch date
2021-09-14
Launch site
AFWTR
Launch vehicle
Mass (kg)
RCS (m²)

Purposes: comms

External: N2YO · Heavens-Above · Gunter

§ Orbital elements

Epoch: 2026-09-19T23:45:05.230368Z

Period
96.11 min
Inclination
69.9998°
Eccentricity
0.0002919
Mean motion
14.98331053 rev/d
Perigee alt
570.0 km
Apogee alt
574.1 km
Semi-major
6,950.2 km
B*
3.4314e-5
RAAN
164.5604°
Arg perigee
270.3166°
Mean anomaly
89.7659°
Rev number
27,628

§ Raw data

STARLINK-30781 49134U 21082E   26262.98964387  .00000316  00000+0  34314-4 0  99942 49134  69.9998 164.5604 0002919 270.3166  89.7659 14.98331053276281

JSON: /api/v1/satellites/49134 · /tle

For live sub-satellite position, see the globe view (requires WebGL).

§ Visibility from observer

Set your observer location to see the next 7 days of passes ≥ 10°. The values pass through the URL so the page stays shareable.

No JS? Fill the form by hand. The geolocation button needs JavaScript.